CW7748 Weather Reports


time (UTC)temp
F
wind
direction
speed
knots
gust
knots
rain 1hr
in
rain 24hr
in
rain mn
in
humidity
%
barometer
mb
20260504231038 81 148 0.0 3.5 0.00 0.00 0.00 34 1019.7
20260504230533 81 123 0.0 3.5 0.00 0.00 0.00 32 1019.6
20260504230035 82 169 0.9 3.5 0.00 0.00 0.00 32 1019.7
20260504225535 82 92 1.7 3.5 0.00 0.00 0.00 31 1019.5
20260504225034 82 118 0.0 4.3 0.00 0.00 0.00 31 1019.5
20260504224534 82 75 1.7 4.3 0.00 0.00 0.00 31 1019.4
20260504224034 82 123 1.7 3.5 0.00 0.00 0.00 30 1019.6
20260504223535 82 83 1.7 2.6 0.00 0.00 0.00 31 1019.7
20260504223035 82 200 0.9 3.5 0.00 0.00 0.00 30 1019.6
20260504222033 83 135 0.9 3.5 0.00 0.00 0.00 31 1019.8
20260504221033 83 116 3.5 5.2 0.00 0.00 0.00 29 1019.9
20260504220531 83 116 1.7 4.3 0.00 0.00 0.00 30 1019.9
20260504220035 83 166 0.0 3.5 0.00 0.00 0.00 30 1019.9
20260504215532 83 114 1.7 3.5 0.00 0.00 0.00 31 1020.0
20260504215032 83 120 1.7 5.2 0.00 0.00 0.00 31 1019.9
20260504214533 83 175 3.5 5.2 0.00 0.00 0.00 30 1020.0
20260504213532 83 199 1.7 3.5 0.00 0.00 0.00 29 1019.9
20260504211530 85 120 1.7 5.2 0.00 0.00 0.00 26 1019.9
20260504211032 85 305 3.5 4.3 0.00 0.00 0.00 26 1019.9
20260504210532 86 340 2.6 4.3 0.00 0.00 0.00 26 1020.0
20260504210034 86 80 0.9 3.5 0.00 0.00 0.00 27 1020.0
20260504205531 86 334 0.9 3.5 0.00 0.00 0.00 26 1020.2
20260504205033 86 37 1.7 2.6 0.00 0.00 0.00 26 1020.2
20260504204530 86 278 0.0 2.6 0.00 0.00 0.00 25 1020.1
20260504204032 85 299 0.9 6.1 0.00 0.00 0.00 27 1020.2
20260504203531 85 111 1.7 6.1 0.00 0.00 0.00 26 1020.3
20260504203031 85 86 2.6 6.1 0.00 0.00 0.00 30 1020.4
20260504202529 85 327 1.7 7.8 0.00 0.00 0.00 30 1020.5
20260504200530 85 0 0.9 5.2 0.00 0.00 0.00 29 1020.6
20260504200038 85 45 3.5 5.2 0.00 0.00 0.00 29 1020.9
20260504195034 85 87 2.6 9.6 0.00 0.00 0.00 30 1020.9
20260504194529 85 199 3.5 5.2 0.00 0.00 0.00 30 1020.9
20260504194031 85 283 0.9 6.1 0.00 0.00 0.00 30 1020.9
20260504193529 85 165 3.5 6.1 0.00 0.00 0.00 31 1021.0
20260504193031 84 175 0.9 5.2 0.00 0.00 0.00 31 1021.0
20260504192530 84 37 3.5 5.2 0.00 0.00 0.00 29 1021.1
20260504192030 84 185 1.7 5.2 0.00 0.00 0.00 28 1021.3
20260504191528 84 133 2.6 5.2 0.00 0.00 0.00 30 1021.4
20260504191030 84 228 1.7 7.8 0.00 0.00 0.00 29 1021.5
20260504190528 84 58 3.5 7.8 0.00 0.00 0.00 29 1021.6
20260504190031 84 21 3.5 6.1 0.00 0.00 0.00 31 1021.6
20260504185528 84 61 2.6 5.2 0.00 0.00 0.00 31 1021.7
20260504184528 85 107 3.5 7.8 0.00 0.00 0.00 32 1021.8
20260504184031 84 162 0.0 6.1 0.00 0.00 0.00 32 1021.7
20260504183528 84 183 2.6 6.1 0.00 0.00 0.00 32 1021.8
20260504182528 83 7 0.9 3.5 0.00 0.00 0.00 33 1022.0
20260504182029 83 3 1.7 3.5 0.00 0.00 0.00 31 1022.0
20260504181527 0 0.0 0.0 0.00 0.00 0.00 1022.1
20260504180519 0 0.0 0.0 0.00 0.00 0.00 1022.2
20260504180032 0 0.0 0.0 0.00 0.00 0.00 1022.3
20260504175524 82 38 3.5 6.1 0.00 0.00 0.00 32 1022.3
20260504175029 82 38 3.5 6.1 0.00 0.00 0.00 32 1022.5
20260504174522 82 80 1.7 4.3 0.00 0.00 0.00 32 1022.7
20260504174029 82 169 1.7 5.2 0.00 0.00 0.00 32 1022.8
20260504173522 81 120 2.6 5.2 0.00 0.00 0.00 33 1022.9
20260504173028 81 4 2.6 5.2 0.00 0.00 0.00 35 1022.9
20260504172522 81 309 2.6 4.3 0.00 0.00 0.00 34 1022.8
20260504172028 80 330 1.7 4.3 0.00 0.00 0.00 33 1023.0
20260504171523 80 48 2.6 8.7 0.00 0.00 0.00 35 1023.1
20260504171029 81 0 5.2 8.7 0.00 0.00 0.00 35 1023.0
20260504170523 81 45 1.7 7.8 0.00 0.00 0.00 35 1023.1
20260504151025 76 10 3.5 9.6 0.00 0.00 0.00 42 1024.1
20260504150520 76 305 6.1 9.6 0.00 0.00 0.00 42 1024.1
20260504141017 74 87 4.3 5.2 0.00 0.00 0.00 47 1024.1
20260504140519 74 76 2.6 5.2 0.00 0.00 0.00 48 1024.2
20260504130515 66 23 1.7 4.3 0.00 0.00 0.00 77 1024.2
20260504110502 0 0.0 0.0 0.00 0.00 0.00 1023.6
20260504081941 53 79 0.0 0.0 0.00 0.00 0.00 86 1023.4
20260504080941 53 79 0.0 0.0 0.00 0.00 0.00 87 1023.3
20260504080440 54 79 0.0 0.0 0.00 0.00 0.00 85 1023.3
20260504050435 59 79 0.0 0.9 0.00 0.00 0.00 79 1024.6
20260504045936 59 79 0.0 0.0 0.00 0.00 0.00 79 1024.6
20260504045435 59 79 0.0 0.0 0.00 0.00 0.00 79 1024.6
20260504044435 59 79 0.0 0.0 0.00 0.00 0.00 76 1024.6
20260504042934 60 79 0.0 0.0 0.00 0.00 0.00 76 1024.7
20260504042435 60 79 0.0 0.0 0.00 0.00 0.00 75 1024.8
20260504041936 60 79 0.0 0.0 0.00 0.00 0.00 75 1024.8
20260504041435 60 79 0.0 0.0 0.00 0.00 0.00 75 1024.8
20260504040435 60 79 0.0 0.0 0.00 0.00 0.00 75 1024.8
20260504035935 61 79 0.0 0.0 0.00 0.00 0.00 74 1024.7
20260504035435 61 79 0.0 0.0 0.00 0.00 0.00 74 1024.8
20260504034934 61 80 0.0 0.0 0.00 0.00 0.00 74 1024.8
20260504034434 61 79 0.0 1.7 0.00 0.00 0.00 73 1024.8
20260504033933 61 79 0.0 1.7 0.00 0.00 0.00 72 1024.9
20260504033435 62 79 0.0 1.7 0.00 0.00 0.00 72 1024.8
20260504032935 62 79 0.0 1.7 0.00 0.00 0.00 72 1024.8
20260504032434 62 79 0.0 0.0 0.00 0.00 0.00 71 1024.7
20260504031932 62 79 0.0 0.0 0.00 0.00 0.00 71 1024.7
20260504031433 62 79 0.0 0.9 0.00 0.00 0.00 71 1024.8
20260504030933 62 79 0.0 1.7 0.00 0.00 0.00 71 1024.7
20260504025933 63 79 0.0 0.9 0.00 0.00 0.00 69 1024.5
20260504025434 63 79 0.0 1.7 0.00 0.00 0.00 69 1024.5
20260504023933 65 79 0.0 1.7 0.00 0.00 0.00 66 1024.4
20260504022931 65 79 0.0 0.9 0.00 0.00 0.00 65 1024.3
20260504021932 66 79 0.0 1.7 0.00 0.00 0.00 64 1024.1
20260504021434 67 79 0.0 0.9 0.00 0.00 0.00 63 1024.2
20260504020932 67 79 0.0 0.0 0.00 0.00 0.00 63 1024.0
20260504020432 67 79 0.0 0.0 0.00 0.00 0.00 61 1023.9
20260504015933 67 79 0.0 1.7 0.00 0.00 0.00 61 1023.8
20260504015432 68 79 0.0 1.7 0.00 0.00 0.00 60 1023.8
20260504014932 68 79 0.0 1.7 0.00 0.00 0.00 60 1023.8
20260504013932 69 79 0.0 1.7 0.00 0.00 0.00 59 1023.6
20260504013431 69 79 0.0 1.7 0.00 0.00 0.00 59 1023.5
20260504012930 69 79 0.0 0.9 0.00 0.00 0.00 58 1023.4
20260504012430 69 79 0.0 0.9 0.00 0.00 0.00 57 1023.3
20260504011931 69 79 0.0 1.7 0.00 0.00 0.00 57 1023.2
20260504011430 69 79 0.9 1.7 0.00 0.00 0.00 57 1023.2
20260504010931 69 17 0.9 2.6 0.00 0.00 0.00 57 1023.0
20260504010430 69 4 0.9 2.6 0.00 0.00 0.00 55 1022.9
20260504005430 70 30 0.9 3.5 0.00 0.00 0.00 54 1022.8
20260504004430 70 86 0.0 1.7 0.00 0.00 0.00 51 1022.7
20260504003431 71 87 0.0 1.7 0.00 0.00 0.00 48 1022.7
20260504002931 71 87 0.9 1.7 0.00 0.00 0.00 48 1022.4
20260504001430 73 87 0.0 0.9 0.00 0.00 0.00 47 1022.2
20260504000930 74 87 0.0 0.9 0.00 0.00 0.00 47 1022.2
20260504000431 74 87 0.0 0.9 0.00 0.00 0.00 46 1022.2
20260503235928 74 87 0.0 3.5 0.00 0.00 0.00 46 1022.0
20260503235429 74 316 0.9 3.5 0.00 0.00 0.00 44 1022.0
20260503234425 74 338 0.9 3.5 0.00 0.00 0.00 42 1022.0
20260503233928 75 296 1.7 3.5 0.00 0.00 0.00 42 1022.0
20260503233429 75 350 1.7 3.5 0.00 0.00 0.00 41 1021.9
20260503232928 75 345 0.9 3.5 0.00 0.00 0.00 41 1022.0
20260503232429 76 320 2.6 4.3 0.00 0.00 0.00 40 1022.1